Date String (YYYY-MM-DD hh:mm:ss) UTC,Instrument flags,absolute air pressure of the measurement (hPa),sample flow rate (lpm),inlet stack bypass flow (lpm),air temperature of the measurement (°C),ambient temperature measured by the external sensor (°C),aerosol sample conditioner tube jacket temperature (°C),OPC LED temperature (°C),internal box temperature (°C),relative humidity of the measurement (%),span deviation,mass concentration of particles derived from Lorenz-Mie calculation of OPC scattering (μg/m³),mass concentration of particles derived from Lorenz-Mie calculation of OPC scattering (μg/m³),mass concentration of particles derived from Lorenz-Mie calculation of OPC scattering (μg/m³)
DateTimeUTC,F1_M11,P_M11,Q1_M11,Q2_M11,T1_M11,T2_M11,T3_M11,T4_M11,T5_M11,U1_M11,ZSPAN_M11,X0_M11,X2_M11,X1_M11
2024-01-25 17:00:00,SystemResetWarning,0827.1,5.00,000.00,021.3,020.7,000.0,029.5,022.9,15.6,0000.0,0006.33,0004.03,0003.82
2024-01-25 17:01:00,SystemResetWarning,0827.1,4.99,000.00,021.4,020.7,000.0,029.5,022.9,15.8,0000.0,0006.52,0004.13,0003.92
2024-01-25 17:02:00,SystemResetWarning,0827.1,5.00,000.00,021.4,020.8,000.0,029.5,022.9,15.8,0000.0,0006.91,0004.26,0004.04
2024-01-25 17:03:00,SystemResetWarning,0827.2,5.00,000.00,021.4,020.8,000.0,029.5,022.9,15.9,0000.0,0007.13,0004.37,0004.14
2024-01-25 17:04:00,SystemResetWarning,0827.2,4.99,000.00,021.4,020.8,000.0,029.6,023.0,16.0,0000.0,0007.13,0004.42,0004.21
2024-01-25 17:05:00,SystemResetWarning,0827.1,4.99,000.00,021.4,020.8,000.0,029.6,023.0,15.7,0000.0,0007.33,0004.50,0004.26
2024-01-25 17:06:00,SystemResetWarning,0827.2,5.00,000.00,021.5,020.8,000.0,029.6,023.0,15.4,0000.0,0007.21,0004.57,0004.33
2024-01-25 17:07:00,SystemResetWarning,0827.2,5.01,000.00,021.5,020.9,000.0,029.6,023.0,15.5,0000.0,0007.69,0004.62,0004.39
2024-01-25 17:13:00,SystemResetWarning,0827.2,4.99,000.00,021.6,021.1,000.0,029.7,023.2,15.6,0000.0,0008.29,0004.56,0004.35
2024-01-25 17:14:00,SystemResetWarning,0827.1,5.00,000.00,021.7,021.1,000.0,029.7,023.3,15.8,0000.0,0008.34,0004.53,0004.32
2024-01-25 17:15:00,SystemResetWarning,0827.2,5.00,000.00,021.7,021.2,000.0,029.8,023.3,15.8,0000.0,0008.43,0004.51,0004.30
2024-01-25 17:16:00,SystemResetWarning,0827.1,4.99,000.00,021.7,021.2,000.0,029.8,023.3,15.8,0000.0,0008.34,0004.46,0004.26
2024-01-25 17:17:00,SystemResetWarning,0827.1,5.00,000.00,021.7,021.2,000.0,029.8,023.3,15.8,0000.0,0008.30,0004.43,0004.23
2024-01-25 17:18:00,SystemResetWarning,0827.2,4.99,000.00,021.8,021.2,000.0,029.8,023.3,15.7,0000.0,0007.79,0004.42,0004.20
2024-01-25 17:19:00,SystemResetWarning,0827.2,5.00,000.00,021.8,021.3,000.0,029.9,023.4,15.4,0000.0,0007.50,0004.39,0004.17
2024-01-25 17:20:00,SystemResetWarning,0827.1,5.01,000.00,021.8,021.3,000.0,029.9,023.4,15.5,0000.0,0007.43,0004.34,0004.13
2024-01-25 17:21:00,SystemResetWarning,0827.2,5.01,000.00,021.8,021.3,000.0,029.9,023.4,15.4,0000.0,0007.37,0004.30,0004.09
2024-01-25 17:22:00,SystemResetWarning,0827.1,5.00,000.00,021.9,021.3,000.0,029.9,023.4,15.5,0000.0,0007.27,0004.22,0004.03
2024-01-25 17:23:00,SystemResetWarning,0827.1,5.00,000.00,021.9,021.3,000.0,030.0,023.5,15.4,0000.0,0007.62,0004.17,0003.96
2024-01-25 17:24:00,SystemResetWarning,0827.1,5.00,000.00,021.9,021.3,000.0,030.0,023.5,15.4,0000.0,0008.31,0004.11,0003.91
2024-01-25 17:25:00,SystemResetWarning,0827.1,5.00,000.00,021.9,021.4,000.0,030.0,023.5,15.6,0000.0,0007.78,0004.08,0003.87
2024-01-25 17:26:00,SystemResetWarning,0827.1,5.00,000.00,021.9,021.4,000.0,030.0,023.5,15.6,0000.0,0007.70,0004.03,0003.83
2024-01-25 17:27:00,SystemResetWarning,0827.0,4.99,000.00,022.0,021.4,000.0,030.0,023.5,15.6,0000.0,0007.69,0004.01,0003.81
2024-01-25 17:28:00,SystemResetWarning,0827.1,5.00,000.00,022.0,021.4,000.0,030.1,023.6,15.4,0000.0,0007.68,0004.00,0003.79
2024-01-25 17:29:00,SystemResetWarning,0827.1,5.00,000.00,022.0,021.4,000.0,030.1,023.6,15.0,0000.0,0007.61,0003.97,0003.79
2024-01-25 17:30:00,SystemResetWarning,0827.1,5.00,000.00,022.0,021.5,000.0,030.1,023.6,15.4,0000.0,0007.70,0003.97,0003.79
2024-01-25 17:31:00,SystemResetWarning,0827.1,5.00,000.00,022.0,021.5,000.0,030.1,023.6,15.2,0000.0,0007.87,0003.98,0003.79
2024-01-25 17:32:00,SystemResetWarning,0827.0,5.00,000.00,022.1,021.5,000.0,030.2,023.6,15.1,0000.0,0008.06,0003.99,0003.79
2024-01-25 17:33:00,SystemResetWarning,0827.0,5.01,000.00,022.1,021.5,000.0,030.2,023.7,15.2,0000.0,0008.09,0004.01,0003.81
2024-01-25 17:34:00,SystemResetWarning,0827.0,4.99,000.00,022.1,021.5,000.0,030.2,023.7,15.3,0000.0,0007.98,0004.05,0003.83
2024-01-25 17:35:00,SystemResetWarning,0827.0,5.00,000.00,022.1,021.6,000.0,030.2,023.7,15.7,0000.0,0006.55,0004.08,0003.85
2024-01-25 17:36:00,SystemResetWarning,0827.0,5.00,000.00,022.1,021.6,000.0,030.2,023.7,15.4,0000.0,0006.48,0004.08,0003.86
2024-01-25 17:37:00,SystemResetWarning,0827.0,5.00,000.00,022.2,021.6,000.0,030.3,023.7,15.3,0000.0,0007.39,0004.09,0003.89
2024-01-25 17:38:00,SystemResetWarning,0827.0,5.00,000.00,022.2,021.6,000.0,030.3,023.7,15.4,0000.0,0007.41,0004.09,0003.91
2024-01-25 17:39:00,SystemResetWarning,0827.0,5.00,000.00,022.2,021.6,000.0,030.3,023.8,15.5,0000.0,0007.84,0004.08,0003.93
2024-01-25 17:40:00,SystemResetWarning,0827.0,5.00,000.00,022.2,021.6,000.0,030.3,023.8,15.5,0000.0,0008.04,0004.11,0003.94
2024-01-25 17:41:00,SystemResetWarning,0827.0,5.00,000.00,022.2,021.7,000.0,030.3,023.8,15.2,0000.0,0008.02,0004.11,0003.93
2024-01-25 17:42:00,SystemResetWarning,0827.0,5.00,000.00,022.2,021.7,000.0,030.4,023.8,15.0,0000.0,0007.82,0004.10,0003.93
2024-01-25 17:43:00,SystemResetWarning,0827.0,5.00,000.00,022.3,021.7,000.0,030.4,023.8,14.9,0000.0,0007.72,0004.11,0003.93
2024-01-25 17:44:00,SystemResetWarning,0827.0,5.00,000.00,022.3,021.7,000.0,030.4,023.8,15.0,0000.0,0007.64,0004.10,0003.94
2024-01-25 17:45:00,SystemResetWarning,0827.0,5.01,000.00,022.3,021.7,000.0,030.4,023.8,15.1,0000.0,0007.61,0004.09,0003.94
2024-01-25 17:46:00,SystemResetWarning,0827.0,5.01,000.00,022.3,021.7,000.0,030.4,023.8,15.2,0000.0,0007.66,0004.10,0003.94
2024-01-25 17:47:00,SystemResetWarning,0827.0,5.01,000.00,022.3,021.7,000.0,030.5,023.8,14.8,0000.0,0007.70,0004.11,0003.94
2024-01-25 17:48:00,SystemResetWarning,0827.0,5.00,000.00,022.3,021.7,000.0,030.5,023.9,14.4,0000.0,0007.21,0004.13,0003.93
2024-01-25 17:49:00,SystemResetWarning,0827.0,5.00,000.00,022.4,021.8,000.0,030.5,023.9,14.7,0000.0,0007.44,0004.13,0003.92
2024-01-25 17:50:00,SystemResetWarning,0827.0,4.99,000.00,022.4,021.8,000.0,030.5,023.9,14.9,0000.0,0007.00,0004.14,0003.93
2024-01-25 17:51:00,SystemResetWarning,0827.0,5.00,000.00,022.4,021.8,000.0,030.5,023.9,15.1,0000.0,0006.57,0004.12,0003.93
2024-01-25 17:52:00,SystemResetWarning,0827.0,5.00,000.00,022.4,021.8,000.0,030.5,023.9,15.1,0000.0,0006.56,0004.12,0003.93
2024-01-25 17:53:00,SystemResetWarning,0827.0,5.01,000.00,022.4,021.8,000.0,030.5,024.0,15.4,0000.0,0006.58,0004.13,0003.93
2024-01-25 17:54:00,SystemResetWarning,0827.0,5.00,000.00,022.4,021.8,000.0,030.6,024.0,15.5,0000.0,0006.73,0004.13,0003.94
2024-01-25 17:55:00,SystemResetWarning,0827.0,4.99,000.00,022.5,021.9,000.0,030.6,024.0,15.2,0000.0,0006.80,0004.13,0003.93
2024-01-25 17:56:00,SystemResetWarning,0826.9,5.00,000.00,022.5,021.9,000.0,030.6,024.0,15.1,0000.0,0006.93,0004.17,0003.93
2024-01-25 17:57:00,SystemResetWarning,0826.9,5.00,000.00,022.5,021.9,000.0,030.6,024.0,14.9,0000.0,0007.02,0004.16,0003.94
2024-01-25 17:58:00,SystemResetWarning,0826.9,5.00,000.00,022.5,021.9,000.0,030.6,024.1,14.7,0000.0,0007.09,0004.14,0003.95
2024-01-25 17:59:00,SystemResetWarning,0826.9,5.00,000.00,022.5,021.9,000.0,030.6,024.1,14.9,0000.0,0007.45,0004.14,0003.96
